Unicom:                    122.8

AWOS:                  118.275

Elevation           1458’ MSL

TPA:                   2500’ MSL

06/24:         5003’ L   75’ W

PAPI:       06/Left     24/Left

(Operate lights on unicom freq.)

Traffic Pattern: Left

Beacon: Sunset to Sunrise

Windsock: yes, lighted

Segmented Circle: No

 

Cleveland Center: 126.72/291.65

FSS: Altoona

[Source: ADDS]
METAR
KFKL 201656Z AUTO 20009KT 10SM CLR 08/M06 A3020 RMK AO2 SLP239 T00831061 =
KFKL 201735Z 2018/2118 19010KT P6SM BKN250 FM210500 15005KT P6SM VCSH OVC060 FM211400 16006KT P6SM -RA OVC030
TAF
KFKL 201735Z 2018/2118 19010KT P6SM BKN250 FM210500 15005KT P6SM VCSH OVC060 FM211400 16006KT P6SM -RA OVC030 =
[Source: ADDS]
METAR
KDUJ 201753Z AUTO VRB05KT 10SM CLR 09/M09 A3016 RMK AO2 SLP227 T00891089 10094 21028 58023 =
KDUJ 201735Z 2018/2118 19010KT P6SM BKN250 FM210000 13008KT P6SM OVC100 FM211500 14007KT P6SM VCSH OVC040
TAF
KDUJ 201735Z 2018/2118 19010KT P6SM BKN250 FM210000 13008KT P6SM OVC100 FM211500 14007KT P6SM VCSH OVC040 =

Welcome to Clarion County Airport.

We look forward to serving all of your aviation needs.


Clarion County Airport is a General Aviation, Business Class airport serving the Clarion County Area in Central Western Pennsylvania.  Our 5,003' asphalt runway and gps approaches are capable of serving most of the general aviation fleet in most weather conditions.


If you are planning a fuel stop while flying in Western Pennsylvania, consider paying us a visit. Our prices are some of the lowest in the state Check prices here ----> www.airnav.com/fuel and enter identifier KAXQ or see current prices below. We can have you fueled and taxiing out to the runway in about 10 minutes. Our current hours of operation are Monday- Saturday 8:00AM-4:00PM. The FBO building will be closed on Sundays until March 1st, 2019. Holiday closures are Christmas Day and Thanksgiving. If you require use of the facilities during the holidays or after hours please call ahead and someone will be there to assist you.


- Airport Manager -  


                             CURRENT FUEL PRICES AS OF 1/4/19      JET-A w/additive    $3.79               100LL     $4.65 CC   Cash $4.52


                              Self Service fueling available 24/7, credit card reader enabled. Center point fueling available upon request.

                                                           For after hours fueling assistance please contact 814-282-6001.